Overview Statistics Trail Chart Weather Telemetry Raw packets
 

This is the latest recevied weather packets stored in our database for station/object KG5VSR. If no packets are shown the sender has not sent any weather packets the latest 10 day(s).

<< 4 5 6 7 8 9 10 >>
Time Temp. Humidity Pressure Rain* Wind** Luminosity Snow
1788412350 27.22° C 80% 1013.7 hPa 0 mm - 0 W/m² -
1788410550 27.78° C 77% 1013.8 hPa 0 mm - 0 W/m² -
1788408744 28.33° C 74% 1013.8 hPa 0 mm - 0 W/m² -
1788406944 28.89° C 72% 1013.7 hPa 0 mm - 0 W/m² -
1788405142 29.44° C 70% 1013.7 hPa 0 mm - 0 W/m² -
1788403342 30° C 67% 1013.6 hPa 0 mm - 0 W/m² -
1788401539 31.11° C 64% 1013.2 hPa 0 mm - 0 W/m² -
1788399737 32.22° C 60% 1012.7 hPa 0 mm - 0 W/m² -
1788397935 32.78° C 57% 1012.1 hPa 0 mm - 0 W/m² -
1788396134 33.89° C 56% 1012.2 hPa 0 mm - 4 W/m² -
1788394332 33.89° C 57% 1012 hPa 0 mm - 23 W/m² -
1788392531 33.33° C 59% 1011.9 hPa 0 mm - 37 W/m² -
1788390731 32.78° C 63% 1011.8 hPa 0 mm - 62 W/m² -
1788388926 36.67° C 51% 1011.6 hPa 0 mm - 90 W/m² -
1788387126 37.22° C 45% 1011.3 hPa 0 mm - 173 W/m² -
1788385324 36.67° C 46% 1011.7 hPa 0 mm - 504 W/m² -
1788383519 37.22° C 45% 1011.9 hPa 0 mm - 524 W/m² -
1788381715 37.78° C 45% 1012.3 hPa 0 mm - 77 W/m² -
1788379916 36.67° C 46% 1012.8 hPa 0 mm - 665 W/m² -
1788378114 37.78° C 45% 1013.5 hPa 0 mm - 682 W/m² -
1788376315 36.11° C 50% 1013.9 hPa 0 mm - 615 W/m² -
1788374510 36.11° C 50% 1014.7 hPa 0 mm - 750 W/m² -
1788372707 35.56° C 55% 1015.1 hPa 0 mm - 742 W/m² -
1788370903 35° C 56% 1015.6 hPa 0 mm - 704 W/m² -
1788369101 33.89° C 59% 1016.3 hPa 0 mm - 799 W/m² -

* Rain latest hour (hover to see other rain measurements)
** Current wind speed in m/s (hover to see current wind gust speed)